C/2022 K1 ( Leonard )

Japanese version
Home page
Updated on September 11, 2022

---------------------------------------------------------------------

* Profile

Discovery Date May 30, 2022
Magnitude 19.7 mag
Discoverer Gregory J. Leonard (Mt. Lemmon)

* Orbital Elements

Epoch 2022 Aug. 9.0 TT = JDT 2459800.5
T 2021 Dec. 17.30282 TT                                 Rudenko
q   3.9863503            (2000.0)            P               Q
z  -0.0007395      Peri.  142.62656     +0.26267253     +0.84702405
 +/-0.0000450      Node   136.29400     -0.96457930     +0.21845809
e   1.0029478      Incl.   41.97514     +0.02428821     -0.48458881
From 74 observations 2022 May 30-Aug. 21, mean residual 0".4.

* Magnitudes Graph

        m1 = 11.0 + 5 log d + 10.0 log r

---------------------------------------------------------------------

The orbital elements are published on M.P.E.C. 2022-Q139.
The magnitudes graphs are made with Comet for Windows.

---------------------------------------------------------------------

Copyright(C) Seiichi Yoshida (comet@aerith.net). All rights reserved.